GEFSSE_500_meanwind_036.txt.gz
Wind_Speed
6 7 8 9 10 11 12 12 13 14 15 16 17 19 20 21 22 24 25 26 27 28 29 30 30 31 31 31 32 32 32 33 33 34 35 36 36 37 37 37 36 33 31
8 9 10 11 12 12 13 13 14 15 17 18 19 21 22 23 25 26 27 29 30 31 32 33 34 35 35 36 36 37 37 37 37 37 38 39 39 39 39 40 40 39 37
9 10 11 12 13 14 15 16 17 18 19 21 22 24 25 26 28 29 30 31 32 34 35 36 37 38 39 40 41 41 42 42 42 41 42 43 43 43 42 42 43 44 43
11 11 12 13 14 15 17 18 19 21 23 24 26 27 28 29 30 32 33 33 34 35 36 38 39 40 42 43 44 45 46 47 47 47 47 47 47 48 47 46 46 46 47
11 12 13 14 16 18 19 21 23 24 26 27 28 29 30 31 32 34 35 36 37 38 39 40 41 43 44 45 47 49 50 51 51 52 53 53 53 53 53 52 51 50 50
12 13 15 17 19 21 22 24 25 26 28 28 29 30 32 33 34 35 36 38 39 41 43 44 46 47 49 50 51 53 54 55 55 56 57 58 59 59 59 58 57 55 54
13 15 17 20 22 23 25 26 27 28 28 29 30 31 33 34 36 37 39 40 42 44 47 49 50 52 54 55 57 58 59 60 60 61 62 63 64 65 65 65 64 61 59
16 19 21 23 25 26 26 27 28 29 29 30 31 33 35 36 38 39 41 43 45 48 50 52 54 56 59 61 62 64 65 67 67 68 68 69 69 70 71 71 70 69 66
20 22 24 25 25 26 27 28 29 29 31 32 34 36 37 39 41 42 44 46 48 51 54 56 59 62 65 67 69 71 73 75 76 77 77 77 77 77 77 77 76 76 74
22 23 24 24 25 26 27 28 29 31 33 35 37 39 40 42 43 45 47 49 52 55 58 61 64 67 71 74 78 81 83 85 86 87 87 88 88 87 85 84 83 82 81
21 22 23 23 25 26 28 29 31 33 36 38 40 41 43 44 46 48 50 53 55 58 62 66 69 73 77 82 86 90 94 97 99 100 99 99 99 98 96 94 92 89 87
20 21 23 24 26 28 30 32 34 37 39 40 42 44 45 47 48 50 53 56 59 62 66 70 74 79 83 87 93 99 104 107 110 110 110 110 109 108 106 104 101 98 95
20 22 24 26 28 30 32 34 36 38 40 42 43 45 47 49 51 53 56 59 62 66 70 74 79 84 89 94 100 106 109 112 114 114 114 114 115 116 117 116 113 109 104
20 22 25 27 29 31 33 35 37 39 41 43 45 47 49 51 53 56 58 62 65 69 73 78 83 88 95 101 107 109 111 111 109 106 104 103 105 108 113 118 122 120 116
21 23 25 27 29 31 33 35 37 39 41 43 45 47 49 52 55 57 60 64 67 72 76 81 87 93 100 105 107 108 106 102 99 97 95 94 94 96 99 105 115 124 126
22 24 26 27 29 31 33 35 37 39 41 43 45 47 50 53 56 58 61 65 69 74 79 84 91 98 102 104 103 100 97 94 92 91 91 91 91 92 94 96 101 111 122
23 25 27 29 30 32 34 36 38 40 42 44 46 48 51 53 56 59 63 67 71 76 82 88 95 100 101 99 96 92 89 86 84 83 82 82 84 87 90 93 96 100 108
24 27 29 31 32 33 35 37 40 42 44 47 49 51 53 55 57 61 64 68 73 79 85 92 97 98 96 93 89 84 80 78 76 75 73 72 72 74 79 86 93 97 100
25 28 31 33 35 36 38 39 42 44 47 49 52 54 55 57 59 62 66 71 76 82 88 94 97 95 91 88 83 77 74 73 71 70 68 65 63 65 68 75 84 93 98
26 29 32 35 38 39 41 42 44 46 49 52 54 57 59 60 62 65 69 73 79 85 91 95 94 91 87 84 79 74 71 69 67 64 63 60 58 59 62 66 73 84 94
27 30 34 37 40 42 45 46 48 49 52 54 57 60 62 63 65 67 71 76 81 87 92 93 91 86 83 80 77 72 67 64 61 58 58 57 55 54 57 62 66 74 86
29 32 35 38 42 45 47 49 51 53 54 57 59 62 64 66 67 70 73 78 84 89 91 90 87 83 80 77 76 73 67 58 53 52 53 53 52 50 51 56 63 69 78
31 34 37 40 43 46 49 52 54 55 57 59 62 65 67 69 70 72 76 80 86 89 89 87 84 81 77 74 74 73 69 61 53 45 44 46 48 46 43 47 57 66 73
33 36 39 41 45 48 51 53 56 58 59 61 64 67 69 71 72 74 77 82 86 88 87 84 80 78 76 73 70 69 66 63 58 49 39 39 42 42 38 37 46 61 70
36 38 41 43 46 49 52 55 57 59 61 63 65 68 71 72 74 76 79 83 86 87 84 80 78 76 74 73 69 66 62 58 56 54 45 36 34 36 36 31 34 50 66
38 41 43 45 48 50 53 55 58 60 63 65 67 69 72 74 75 77 80 83 85 84 81 78 75 73 72 70 68 65 61 57 53 50 46 38 32 29 30 28 26 37 56

GEFSSE_500_meanwind_042.txt.gz
Wind_Speed
2 2 4 5 6 7 8 9 10 11 12 12 13 14 14 15 16 16 17 18 18 19 19 19 20 20 20 20 21 21 21 22 23 25 26 26 26 26 26 27 27 28 29
3 5 6 6 7 9 10 11 12 13 14 14 15 16 17 18 18 19 19 20 20 21 21 22 22 22 23 23 23 23 23 24 26 27 28 29 29 30 30 30 31 31 32
5 6 7 8 9 11 12 13 14 15 16 17 18 19 19 20 20 20 21 21 22 23 24 24 25 25 26 26 26 26 26 26 28 29 30 32 32 33 33 34 35 35 36
7 8 10 11 12 14 15 16 17 18 19 20 20 21 21 21 21 21 22 23 23 24 25 26 27 27 28 29 30 30 30 30 31 32 33 34 35 36 36 37 38 39 40
9 11 12 14 15 17 18 19 20 20 21 21 21 21 21 22 22 23 24 25 25 26 27 28 28 29 30 32 32 33 34 35 36 36 37 38 39 40 40 41 41 42 43
11 13 15 17 18 19 20 20 21 21 21 21 21 21 22 23 24 25 26 28 28 29 30 31 31 32 33 34 35 36 37 38 39 40 41 42 44 45 45 46 46 46 47
14 15 17 19 20 20 20 20 20 20 20 21 21 22 23 25 26 27 29 30 31 32 33 34 35 36 37 37 39 40 41 42 43 44 45 47 48 49 50 51 52 52 53
16 17 18 19 19 19 19 19 20 20 21 22 23 24 26 27 28 29 30 31 32 34 35 36 37 39 40 42 43 44 45 46 47 48 50 51 52 53 55 56 57 58 59
17 18 18 17 17 18 18 19 20 21 22 23 24 25 27 28 29 30 31 32 34 35 36 38 40 42 43 45 46 48 50 51 52 54 55 56 58 59 60 61 62 63 64
16 16 16 16 17 18 19 20 21 22 23 24 25 26 27 28 28 29 30 32 33 35 37 39 41 43 45 47 49 51 53 55 56 58 60 61 63 66 67 69 70 71 71
14 14 15 17 18 19 20 22 23 24 25 25 26 26 27 27 28 29 30 32 34 36 37 40 42 44 46 48 51 53 55 57 59 61 63 66 69 72 74 77 80 82 82
13 14 16 17 19 20 21 22 23 25 25 26 27 27 28 29 30 31 32 34 35 37 39 41 43 45 47 50 53 55 57 60 62 65 67 70 74 77 81 85 89 92 94
13 14 16 18 20 21 22 23 24 26 27 28 29 30 31 32 33 34 35 37 38 39 41 43 45 47 50 52 55 57 60 62 65 68 71 75 78 83 87 93 97 101 105
13 15 17 18 19 21 22 23 25 27 29 30 32 33 34 36 37 38 39 40 41 43 44 46 48 50 53 55 58 60 63 65 68 71 75 80 84 89 95 100 104 108 111
14 15 16 18 19 21 23 24 26 28 30 32 33 35 36 37 39 40 42 43 44 46 47 49 51 53 56 58 61 63 66 69 72 76 80 86 91 97 101 104 107 110 109
14 15 16 18 20 22 24 26 28 30 32 34 35 37 38 39 41 42 43 45 46 48 50 52 54 56 59 62 64 67 70 73 77 81 86 91 97 101 104 106 105 101 98
15 17 18 20 21 23 25 27 29 31 34 36 37 39 40 41 43 44 46 47 48 50 52 54 57 60 62 64 67 70 74 78 82 86 91 95 99 102 103 102 98 92 89
18 19 21 22 24 25 27 29 31 33 36 38 40 42 43 44 46 47 48 49 50 52 54 57 60 63 65 67 70 73 77 81 85 90 93 96 98 99 97 95 91 85 82
21 23 24 25 27 28 29 31 33 36 38 40 42 44 46 47 49 50 50 51 53 54 56 59 62 65 67 69 72 75 79 84 88 91 93 94 94 94 91 88 84 79 75
24 26 28 29 30 31 32 33 35 38 40 43 45 47 49 50 52 52 53 54 55 56 58 61 64 67 69 71 74 77 82 86 89 90 91 90 89 88 86 83 78 73 69
28 30 31 32 33 34 35 37 38 41 43 45 48 50 52 53 54 55 56 57 57 59 61 62 65 68 71 73 76 78 82 85 87 86 85 84 83 83 81 78 74 70 65
31 33 34 35 36 38 39 40 41 43 46 48 51 53 54 56 57 58 58 59 59 61 62 64 66 70 73 77 79 82 83 84 85 83 80 79 78 78 77 75 71 67 63
34 36 37 38 40 41 42 43 45 47 49 51 54 56 57 58 59 60 61 61 62 63 64 65 68 71 75 79 82 85 87 87 86 80 75 73 73 72 73 72 69 65 61
37 38 40 41 42 44 45 47 48 50 52 54 56 58 60 60 61 62 62 63 64 65 65 67 70 73 76 80 83 86 87 88 87 83 73 69 68 68 69 69 67 63 58
40 41 43 44 45 46 48 49 51 53 55 57 59 60 62 62 62 63 64 65 65 66 66 68 71 75 78 81 83 84 85 85 85 84 76 67 63 63 65 66 65 61 56
43 44 45 47 47 49 50 52 54 56 57 59 61 63 63 63 63 64 65 66 66 66 67 69 73 76 79 81 83 83 83 82 81 80 76 69 63 59 60 62 63 60 55

GEFSSE_500_meanwind_048.txt.gz
Wind_Speed
5 5 5 5 6 7 7 7 8 9 10 11 12 13 14 15 15 16 16 16 16 16 16 16 16 16 16 17 18 19 19 19 19 19 19 19 19 19 20 20 20 20 21
5 5 6 6 7 7 8 9 10 11 12 13 14 16 17 17 18 18 18 18 18 18 18 18 18 18 18 18 19 20 21 21 21 22 22 22 22 22 23 23 23 23 24
6 6 6 7 8 9 10 11 12 13 14 15 16 17 18 19 19 19 19 19 19 19 19 19 19 19 19 20 21 22 22 23 23 23 24 24 24 25 25 26 26 26 27
7 7 8 9 10 11 12 13 14 15 16 17 17 18 18 19 19 19 19 19 19 20 20 21 21 22 22 22 23 24 24 25 26 26 27 27 27 28 28 29 29 29 30
9 9 10 11 12 13 14 14 15 15 15 16 16 17 17 17 17 18 19 19 20 21 22 23 23 24 24 25 25 26 27 28 29 29 30 31 31 31 32 32 33 33 34
11 11 12 13 13 13 13 13 14 14 14 14 15 15 16 16 17 18 19 20 21 22 23 24 25 25 26 27 28 29 30 31 32 33 34 34 35 35 36 36 37 37 38
12 12 13 13 13 12 12 12 12 13 13 14 14 15 16 17 18 19 20 20 21 22 23 24 25 26 27 28 29 30 31 32 33 34 36 37 38 39 39 40 41 41 42
12 12 12 12 11 11 11 11 12 13 14 14 15 16 16 17 18 19 20 20 21 22 23 23 24 25 26 27 29 30 31 33 34 36 37 38 40 41 42 43 44 45 46
12 11 11 10 10 10 11 12 12 13 14 15 16 17 17 18 19 19 21 21 22 23 24 25 26 27 27 28 29 30 31 33 34 36 37 39 41 42 44 45 47 48 49
11 10 9 9 9 10 11 12 13 14 16 16 17 18 19 20 21 22 23 24 25 26 27 28 29 30 30 31 32 32 33 34 35 36 37 39 41 43 44 46 48 49 51
9 9 8 9 9 10 11 12 14 15 16 17 18 19 20 21 23 24 25 27 28 29 30 32 33 34 34 35 36 36 37 37 38 38 39 40 42 43 45 47 48 50 52
9 9 9 9 10 11 12 13 13 14 16 17 18 19 20 22 23 25 26 28 29 31 32 33 35 36 38 39 39 40 40 41 41 42 42 43 44 45 46 48 49 51 53
10 10 10 10 10 11 12 13 14 15 16 17 19 20 21 22 24 25 27 28 30 31 33 35 36 38 39 41 42 43 44 44 45 45 46 47 47 48 49 50 52 53 55
12 12 11 11 12 12 13 14 16 17 18 19 20 21 23 24 25 27 28 30 32 33 35 36 37 39 40 42 43 45 46 47 47 48 49 49 50 51 52 53 55 56 58
14 14 14 14 14 15 16 17 19 19 21 22 22 23 25 26 28 30 31 33 35 36 38 39 39 41 42 43 44 46 47 48 49 50 51 52 53 54 55 56 58 60 61
16 16 17 17 18 19 20 21 22 23 24 25 26 27 28 30 31 33 35 37 39 40 42 43 43 44 44 45 46 47 49 50 51 52 53 55 56 58 59 60 62 63 65
19 19 20 20 21 22 23 24 25 27 28 29 30 31 32 34 35 36 38 40 42 44 46 47 48 48 48 48 49 50 51 53 54 55 56 58 59 61 63 64 66 67 69
21 22 22 23 24 26 27 28 29 30 31 33 33 35 36 37 39 40 42 43 45 47 49 51 52 52 52 51 52 52 54 55 57 58 60 61 63 65 66 68 70 71 72
24 25 25 26 28 29 30 31 32 33 35 36 37 38 39 41 42 44 45 47 48 50 52 54 55 55 55 54 54 55 56 57 59 60 62 64 66 68 70 71 72 73 74
27 28 29 30 31 32 32 33 35 36 38 39 41 42 43 44 45 47 49 50 52 53 55 57 58 58 57 57 57 57 58 60 61 62 64 66 68 70 72 73 73 74 75
30 31 32 33 34 35 35 37 38 39 41 42 44 46 47 48 49 50 52 53 55 56 58 60 60 60 59 59 59 59 59 60 62 64 65 67 69 71 72 73 74 75 76
32 33 35 36 37 38 39 41 41 43 44 45 47 49 51 51 52 54 55 56 58 59 61 62 62 60 60 60 60 61 61 62 61 63 65 67 69 71 72 73 75 76 78
35 37 39 40 41 42 43 45 45 46 47 48 51 53 54 55 56 57 58 59 60 62 63 64 63 61 61 61 61 62 63 64 65 64 65 67 70 71 72 74 76 78 80
39 41 43 44 45 46 48 48 49 50 51 52 54 55 57 58 59 59 60 61 62 63 64 64 63 61 61 62 62 63 64 65 65 65 66 68 69 71 73 75 78 80 83
42 44 46 48 49 50 51 52 53 53 54 56 57 58 59 60 61 62 63 63 63 64 64 64 62 61 62 62 63 63 64 65 66 66 66 67 69 71 74 76 79 82 84
44 46 48 50 51 52 53 54 55 56 57 58 59 60 61 62 63 63 64 65 65 65 65 64 63 62 62 62 63 64 64 65 66 67 67 67 68 71 74 77 80 82 83

GEFSSE_500_meanwind_054.txt.gz
Wind_Speed
5 6 7 7 8 9 9 10 11 12 12 12 12 13 13 13 13 14 14 14 15 15 15 16 16 17 17 16 16 16 16 16 16 16 16 16 17 17 17 17 18 18 18
5 6 7 8 8 9 10 11 12 13 13 13 14 14 14 14 14 15 15 15 15 16 16 16 17 18 18 18 18 18 18 18 18 19 19 19 19 19 19 20 20 20 20
5 6 7 8 9 10 11 12 13 13 13 13 13 13 14 14 14 14 14 15 15 15 16 16 17 18 18 19 19 20 20 20 20 21 21 21 21 22 22 22 22 23 23
7 8 9 10 11 12 12 13 13 13 13 13 12 13 13 13 13 13 13 14 14 15 15 16 17 18 19 20 20 21 22 22 22 23 23 24 24 24 25 25 25 25 26
9 10 10 11 12 12 12 12 12 12 12 12 12 12 12 12 12 12 13 13 14 14 15 16 17 17 19 20 21 21 22 23 24 24 25 26 26 27 28 28 28 29 29
10 11 12 12 12 12 12 12 11 11 11 11 11 11 11 12 12 13 13 14 14 15 16 16 17 18 19 20 21 22 23 23 24 25 26 27 28 29 29 30 31 31 32
11 12 12 12 13 12 12 11 11 10 10 11 11 12 12 12 13 14 14 15 15 16 16 17 18 19 19 20 21 22 23 24 25 26 27 28 29 30 31 32 33 34 35
12 13 13 13 12 12 11 10 10 10 11 11 12 12 13 13 14 15 15 16 17 17 18 19 20 21 22 23 24 25 26 27 27 28 29 29 30 31 32 33 34 35 36
13 13 13 12 12 11 11 10 10 11 11 12 12 13 14 14 15 16 17 17 18 19 20 21 22 23 24 25 27 28 29 29 30 31 32 32 33 33 34 34 35 36 37
13 13 13 12 12 11 11 11 11 11 12 12 13 13 14 15 16 16 17 18 19 20 21 22 23 24 26 27 28 30 31 32 33 34 35 36 36 37 37 38 38 39 39
14 13 13 13 12 12 12 12 12 12 12 13 13 14 15 15 16 17 18 19 20 21 22 22 23 25 26 27 29 30 32 33 35 36 37 38 39 40 41 41 42 42 43
14 14 14 13 14 14 14 14 14 14 14 14 15 15 16 17 18 19 19 21 22 23 23 24 25 26 27 29 30 31 33 34 35 37 39 40 42 43 44 44 45 46 46
16 16 16 15 16 16 16 16 16 16 17 17 18 18 19 20 20 21 22 23 24 25 26 27 28 29 30 31 32 33 34 36 37 38 40 41 43 45 46 47 48 49 50
18 19 18 18 18 19 18 18 19 20 20 20 21 21 22 23 23 24 26 27 28 29 30 31 32 33 34 35 36 37 37 38 39 40 41 43 44 46 47 48 50 51 52
20 21 21 21 21 22 21 22 22 23 23 24 24 25 25 26 27 28 29 30 31 32 33 34 35 36 38 39 40 41 42 42 43 43 43 44 45 46 48 50 51 53 54
23 23 24 24 25 25 25 26 26 26 26 27 28 29 29 30 31 32 32 34 35 36 37 38 39 40 41 42 43 44 45 46 47 47 47 47 47 48 49 50 52 53 55
25 26 26 27 28 28 29 29 29 30 30 31 32 33 33 34 35 35 36 37 38 39 41 42 43 44 45 46 47 48 49 50 50 51 51 50 50 50 50 51 52 53 55
28 28 29 30 30 31 32 33 33 33 33 34 35 37 38 38 39 39 40 41 42 43 44 46 47 48 49 50 51 52 53 54 54 55 54 53 53 52 53 53 54 54 55
30 30 31 31 32 34 35 36 36 36 36 38 39 40 41 42 43 44 44 45 46 47 48 50 51 52 53 54 54 55 56 57 57 57 57 56 55 55 55 55 55 55 56
32 32 32 34 35 37 37 38 39 39 40 42 43 43 44 45 47 48 48 49 50 51 52 54 55 56 57 57 58 58 59 59 60 59 59 58 57 57 57 57 57 57 58
31 33 34 35 37 39 40 40 41 42 44 44 45 45 47 48 51 52 52 53 54 55 56 57 59 60 60 61 61 61 61 61 61 60 60 59 59 59 59 59 59 59 59
30 32 34 35 37 39 41 42 43 44 45 46 46 48 50 52 54 55 56 56 57 58 59 60 62 63 63 64 64 64 62 61 60 60 59 59 60 60 60 60 60 60 60
30 31 33 35 36 38 41 43 44 46 47 48 49 51 53 55 55 56 58 59 60 61 61 62 64 65 65 65 64 63 63 62 61 59 58 58 59 59 59 60 60 60 61
30 31 33 35 37 39 41 43 45 47 48 49 51 53 54 56 57 58 59 61 62 63 64 65 65 65 65 65 64 63 62 62 61 61 59 59 59 59 59 60 60 60 61
31 32 34 36 38 40 41 44 46 47 49 51 53 54 56 57 58 59 60 62 63 65 66 66 66 65 64 64 64 62 61 62 61 62 61 60 61 60 60 60 60 60 61
33 34 35 37 39 41 42 44 46 48 50 52 54 55 57 58 58 59 61 63 64 65 66 67 66 65 65 64 64 63 63 63 62 62 62 62 62 61 61 60 61 61 62

GEFSSE_500_meanwind_060.txt.gz
Wind_Speed
6 6 6 6 6 6 7 7 7 8 8 9 10 11 11 12 12 13 13 13 13 13 13 13 13 13 13 13 13 13 14 14 14 15 15 15 16 16 17 17 17 18 18
5 5 5 6 6 6 7 7 8 9 9 10 10 11 11 11 11 12 12 12 13 13 13 13 13 13 13 13 13 14 15 15 16 16 17 17 18 18 19 19 19 20 20
5 5 5 6 6 6 7 8 9 9 10 10 10 10 10 10 11 11 11 12 12 12 12 13 13 13 13 14 15 15 16 17 17 18 19 19 20 20 21 21 22 22 22
5 6 6 6 7 7 8 9 9 9 9 9 9 9 10 10 10 11 11 11 11 12 12 13 13 13 14 14 15 16 17 17 18 19 20 21 21 22 23 23 24 24 25
6 7 7 8 8 8 8 8 8 8 8 8 9 9 9 10 10 10 11 11 12 12 13 13 14 14 14 15 16 16 17 18 19 20 20 21 22 24 24 25 26 27 27
8 8 9 9 8 8 8 8 8 8 8 8 8 9 9 10 10 10 11 12 12 12 13 13 14 14 15 16 16 17 18 19 19 20 21 22 23 24 25 26 27 28 29
10 9 9 9 9 9 9 8 8 8 8 8 8 9 9 10 10 10 11 11 12 12 13 13 14 15 15 16 17 18 19 20 21 22 23 23 24 25 26 27 28 29 30
11 10 10 10 10 9 9 8 8 8 8 9 9 9 9 10 10 10 11 11 11 12 13 13 14 15 16 17 17 18 19 20 21 23 24 25 26 27 28 29 29 30 31
12 11 10 10 10 10 9 9 9 9 9 9 9 9 10 10 10 11 11 11 12 13 13 14 14 15 16 17 18 19 20 21 23 24 25 26 27 29 30 31 32 32 33
13 12 11 11 11 11 11 11 10 10 10 10 11 11 11 11 12 12 13 13 14 14 15 16 16 17 18 19 20 21 22 23 24 25 26 27 29 30 31 33 34 35 36
13 13 12 12 12 12 12 12 12 12 12 13 13 13 13 14 14 15 15 16 16 17 18 19 19 20 21 22 23 24 25 25 26 27 28 29 30 31 33 34 35 37 38
14 14 14 14 14 14 14 15 15 15 15 15 15 16 16 17 17 18 18 19 19 20 21 22 23 24 25 25 26 27 28 29 30 31 32 33 34 34 35 36 37 38 40
15 16 17 16 16 16 17 17 18 18 18 18 19 19 19 20 21 21 22 22 23 24 24 25 26 27 28 29 30 31 32 33 34 35 36 37 38 38 39 39 40 41 42
17 18 19 19 19 19 20 20 21 21 22 22 22 22 23 24 24 25 25 26 27 28 28 29 30 31 32 33 33 34 35 36 37 38 39 40 41 42 43 43 44 44 44
19 19 20 20 21 22 22 23 24 25 26 26 26 26 27 28 28 29 29 30 31 31 32 32 33 34 35 36 37 38 39 39 41 42 43 44 45 46 47 47 48 48 48
21 21 22 22 23 24 25 26 27 28 29 30 30 30 31 31 32 33 34 34 35 36 36 36 37 38 39 40 41 42 43 43 44 45 47 47 48 49 50 51 52 52 52
23 24 24 25 25 26 28 29 30 31 32 33 34 35 35 35 36 37 38 39 40 40 40 41 41 42 43 44 45 46 47 47 48 49 50 51 52 52 53 54 55 55 55
24 25 27 27 28 29 30 31 32 33 34 35 37 38 39 40 41 42 42 43 44 44 44 45 46 46 47 48 49 50 50 51 52 52 53 54 55 55 56 56 57 57 57
24 25 27 29 30 31 32 33 34 35 36 38 39 41 43 44 45 46 46 47 48 48 48 49 50 51 51 52 54 54 54 55 55 56 56 57 57 57 58 58 58 58 58
23 25 27 28 30 32 33 34 35 36 37 39 41 43 45 46 48 49 50 51 52 53 53 54 54 55 55 56 58 57 58 58 58 58 59 59 59 59 59 59 59 59 59
24 25 26 28 30 32 34 35 36 37 38 39 40 42 44 46 49 51 52 53 55 56 57 57 58 58 59 61 62 61 61 61 60 60 61 61 60 60 60 59 60 60 61
25 26 27 29 30 32 34 35 36 37 38 39 41 42 44 47 49 51 53 55 57 59 59 60 61 62 62 64 65 65 64 62 61 62 62 61 61 61 60 60 60 61 61
27 28 29 30 32 33 34 36 37 38 39 41 43 45 46 48 50 52 54 56 58 60 62 63 64 65 65 66 67 68 68 66 65 63 62 61 61 61 61 62 62 61 61
30 31 31 32 33 34 35 37 38 39 41 43 45 46 48 50 52 54 56 58 60 62 63 65 66 67 68 68 68 69 70 70 70 67 63 63 62 61 61 62 63 62 62
31 32 32 33 34 35 36 38 39 41 42 44 46 48 51 53 55 57 59 60 62 63 64 66 68 69 70 70 70 70 71 71 71 71 68 65 64 63 62 63 63 63 63
31 32 33 34 34 36 37 38 40 42 43 45 47 49 51 53 56 58 60 62 64 65 66 68 69 71 71 71 72 72 72 72 71 72 71 69 67 65 65 65 64 63 64

GEFSSE_500_meanwind_066.txt.gz
Wind_Speed
11 11 11 11 11 10 10 10 11 11 11 11 11 11 11 11 11 11 11 11 11 12 12 12 13 13 14 14 15 15 16 16 16 16 17 17 17 17 18 18 18 18 18
10 10 10 10 10 10 10 10 11 11 11 11 11 11 11 10 10 10 10 10 11 11 11 12 12 13 13 14 14 15 15 16 17 17 18 18 18 18 19 19 19 20 20
9 10 10 10 10 10 11 11 11 11 12 11 11 10 10 9 9 9 9 9 10 10 11 11 12 12 13 13 14 15 15 16 17 17 18 19 19 20 20 21 21 22 22
9 9 10 10 11 11 11 11 11 12 11 11 10 9 9 9 8 8 8 9 9 10 10 11 11 12 12 13 13 14 15 16 16 17 18 19 20 21 22 22 23 24 24
9 10 10 11 11 12 12 12 12 11 11 10 9 9 9 9 9 8 8 9 9 9 10 10 11 12 12 13 13 14 15 16 16 17 18 19 20 21 22 23 24 25 26
10 11 11 12 12 12 12 12 12 11 11 10 9 9 9 9 9 9 9 9 9 9 10 10 11 12 12 13 14 14 15 16 17 18 19 20 21 22 23 23 24 25 26
12 12 13 13 13 13 13 12 12 11 11 10 10 9 9 9 9 9 9 9 9 10 10 11 11 12 13 13 14 15 15 16 17 17 18 20 21 22 23 24 25 27 28
12 13 13 14 14 14 13 13 13 12 11 11 11 10 10 10 10 10 10 10 10 10 11 11 12 12 13 14 14 15 16 17 17 18 19 20 21 22 23 24 26 27 28
13 13 14 14 14 14 14 14 14 13 13 12 12 12 12 11 11 12 12 12 12 12 13 13 14 14 15 15 16 17 17 18 19 20 21 21 22 23 24 25 26 27 29
14 14 14 15 16 16 15 15 15 15 15 14 14 14 14 14 14 14 14 15 15 15 16 16 16 17 18 18 19 19 20 21 21 22 23 23 24 25 26 27 28 29 30
15 15 16 16 17 17 17 17 17 17 17 17 17 17 17 17 17 17 18 18 18 19 19 20 20 21 21 22 22 23 23 24 25 25 26 27 28 28 29 30 31 31 32
17 17 18 18 18 19 19 19 19 20 20 20 20 20 20 21 21 21 22 22 22 23 23 23 24 24 25 25 26 27 27 28 28 29 30 31 31 32 33 34 34 35 36
19 19 20 20 20 21 21 22 22 23 23 23 24 24 24 25 25 26 26 26 26 27 27 28 28 28 29 29 30 31 31 32 32 33 34 34 35 36 36 37 38 39 39
20 21 21 22 22 23 24 25 25 26 26 27 27 27 28 29 29 30 30 30 31 31 32 32 32 33 33 34 34 35 36 36 36 37 38 38 39 40 40 41 42 42 43
22 22 23 23 24 25 25 27 28 29 30 30 31 31 32 33 33 34 35 35 36 36 37 37 37 37 38 38 39 39 40 40 41 41 42 42 43 43 44 45 45 46 47
21 23 24 25 26 26 27 28 30 31 31 32 33 34 35 36 37 38 39 39 40 41 41 41 42 42 43 43 44 44 44 45 45 45 46 46 46 47 48 49 49 50 50
21 23 24 26 27 28 29 30 31 32 33 34 35 36 37 38 39 40 41 43 44 45 46 46 46 47 47 48 48 49 49 49 49 49 50 50 50 51 52 52 53 53 53
22 23 24 25 27 28 29 30 31 32 33 34 36 37 38 40 41 42 43 44 47 48 49 49 50 51 51 52 53 54 54 53 53 53 53 53 54 55 55 56 56 56 57
24 24 25 25 26 28 29 30 31 32 33 35 37 38 40 41 42 43 44 46 48 49 50 51 52 54 54 55 56 57 57 57 57 57 56 57 58 58 59 59 59 59 59
26 26 27 27 28 29 30 30 31 32 34 35 37 39 40 42 43 44 45 46 48 50 51 52 53 55 56 57 58 59 59 60 60 60 59 60 61 61 62 62 62 62 62
27 28 29 29 29 30 31 32 32 33 35 36 38 39 41 42 44 45 45 47 48 50 51 53 54 56 56 58 60 60 61 62 62 62 62 63 63 64 64 64 64 65 65
29 30 31 31 32 32 32 33 33 34 35 36 38 39 40 42 43 44 46 47 49 50 52 53 55 57 57 59 61 62 62 62 62 63 64 65 65 66 66 66 67 67 67
31 32 33 33 33 34 34 34 34 35 35 36 37 38 40 41 43 44 46 48 49 51 52 54 56 58 59 61 62 64 64 63 63 64 65 66 66 67 68 68 69 69 70
33 33 33 33 33 33 33 33 34 34 35 36 37 38 39 40 41 43 45 47 49 51 53 55 57 59 61 62 64 66 67 67 67 65 64 65 67 68 69 70 71 72 72
33 32 32 32 31 31 31 31 32 32 33 34 35 36 38 40 42 44 46 47 49 51 52 55 57 59 61 63 65 67 68 70 71 71 68 67 68 69 70 71 72 73 74
32 32 30 29 29 29 29 29 30 31 33 34 36 38 40 42 44 46 48 50 52 54 55 57 59 61 63 65 67 69 70 71 72 74 73 71 71 71 72 73 73 74 75

GEFSSE_500_meanwind_072.txt.gz
Wind_Speed
11 12 12 12 13 13 14 14 14 14 14 15 15 15 15 15 16 16 16 16 16 16 16 16 16 16 16 17 17 17 18 18 18 18 19 19 19 19 19 19 19 20 20
13 13 13 13 13 14 14 14 14 15 15 15 16 16 16 16 16 17 17 17 17 17 16 16 16 16 16 17 17 18 18 18 19 19 19 19 19 20 20 20 20 21 21
13 13 13 13 13 14 14 14 15 15 15 16 16 16 16 16 16 16 16 16 16 16 16 16 16 16 16 17 17 17 18 18 18 19 19 19 20 20 20 21 21 22 22
14 13 13 13 14 14 14 15 15 15 16 16 16 16 16 16 16 16 16 16 16 15 15 15 15 15 15 16 16 16 17 17 17 18 18 19 19 20 21 21 22 23 23
14 13 13 14 14 15 15 15 15 15 15 15 15 15 15 15 15 15 15 15 15 15 15 15 15 15 15 15 15 15 16 16 17 17 18 19 19 20 20 21 22 23 23
14 14 14 14 14 15 15 15 15 15 15 15 15 15 15 15 15 15 15 15 15 15 14 14 14 14 14 14 14 15 15 16 16 17 18 19 19 20 21 21 22 23 24
14 14 14 15 15 15 15 15 15 16 16 15 15 15 15 15 15 15 15 15 15 14 14 14 14 14 14 14 15 15 15 16 16 17 18 18 19 20 21 22 23 24 24
15 15 16 16 16 16 16 16 16 16 16 16 16 16 15 16 16 15 15 15 15 15 15 15 15 15 15 15 16 16 16 17 18 18 19 20 20 21 22 23 24 24 25
16 16 17 17 17 17 17 17 17 17 17 17 17 17 17 17 17 17 17 17 17 17 16 17 17 17 17 17 18 18 18 19 20 20 21 22 22 23 24 24 25 26 27
17 18 18 19 19 19 19 19 19 19 19 19 19 19 19 19 19 19 19 19 19 19 19 19 19 19 19 20 20 21 21 22 22 23 23 24 24 25 26 26 27 28 29
19 19 20 20 20 20 21 21 21 21 21 21 21 22 22 22 22 22 22 22 22 22 22 22 23 23 23 23 23 24 24 24 25 25 26 27 27 28 28 29 30 30 31
20 21 21 22 22 22 23 23 23 23 24 24 24 24 25 25 26 26 26 26 26 26 26 26 26 26 27 27 27 27 28 28 28 29 29 30 30 31 32 32 33 33 34
20 21 22 22 23 23 24 24 25 25 26 26 27 27 28 28 29 29 29 30 30 30 30 30 30 30 31 31 31 31 32 32 32 33 33 33 34 34 35 35 36 37 37
20 21 22 23 23 24 25 25 26 27 27 28 29 29 30 31 32 32 33 33 34 34 35 35 35 35 35 35 36 36 37 37 37 37 37 38 38 38 38 39 40 40 41
20 21 21 22 23 25 26 27 27 28 29 29 30 31 31 32 33 34 34 35 36 37 38 38 39 39 40 40 41 41 42 42 42 42 42 42 43 43 43 43 44 44 45
20 20 21 22 23 24 25 26 27 28 29 30 30 31 32 33 34 35 35 36 37 38 39 40 41 42 43 44 45 46 46 47 47 47 47 47 47 47 48 48 49 49 49
20 20 21 21 22 23 24 25 26 27 28 30 31 32 32 33 34 35 36 37 38 39 40 41 42 43 44 45 47 48 49 50 50 51 51 51 51 52 52 52 53 53 54
20 20 21 22 22 23 24 24 26 27 28 29 30 31 33 33 34 35 36 37 38 39 40 41 42 44 45 46 47 49 50 51 52 53 54 54 54 55 56 56 57 57 57
20 21 22 23 23 24 25 26 27 28 29 30 31 32 32 33 33 34 35 36 37 38 39 41 42 43 44 46 47 48 50 51 52 53 54 55 55 56 57 58 59 60 60
22 23 24 24 25 26 27 28 29 30 31 31 32 33 33 33 34 34 35 36 37 38 39 41 42 43 44 46 48 49 50 51 52 53 54 56 56 57 58 59 60 61 62
23 24 25 26 27 28 29 30 31 31 32 33 33 34 34 34 35 35 36 37 38 38 40 41 42 43 44 46 48 49 49 51 52 53 56 57 58 60 61 61 62 63 64
26 27 28 29 29 30 31 31 32 32 32 32 32 32 33 33 34 34 35 36 37 38 39 41 42 44 45 48 50 52 52 53 54 55 57 59 60 62 63 64 65 66 66
28 29 30 30 30 31 31 31 31 30 30 30 30 31 31 32 33 34 35 36 37 39 41 43 46 48 50 52 54 56 58 58 58 57 58 60 62 64 66 67 68 69 70
30 30 31 30 30 31 31 30 29 29 29 29 29 30 30 31 33 34 36 38 40 42 45 47 49 52 54 55 58 60 63 65 66 65 64 65 66 67 69 70 72 73 73
31 31 31 31 30 30 30 29 28 28 28 29 30 31 32 34 36 38 40 42 44 46 49 52 54 57 59 61 63 65 67 70 72 74 73 73 73 73 73 74 75 76 77
32 31 31 30 30 29 29 28 29 29 30 31 32 34 35 37 40 42 44 47 49 52 54 57 59 62 65 67 69 71 74 75 77 79 81 81 81 80 81 80 80 80 80